Flag for France Weather past 2 weeks in Bastia, Corsica, France

Now
63 °F

Passing clouds.


Feels Like: 63 °F
Forecast: 64 / 73 °F
Wind: 3 mph from Southwest

Location: Bastia Airport

Current Time: Sep 23, 2014 at 1:20:57 AM

Latest Report: Sep 23, 2014 at 12:30 AM


Visibility: N/A

Pressure: 29.80 "Hg

Humidity: 83%

Dew point: 57 °F

Location of BastiaLocation

Historic Weather in Bastia — Graph

°F

Bastia temperature yesterday

Maximum temperature yesterday: 84 °F (at 1:00 PM)
Minimum temperature yesterday: 59 °F (at 5:30 AM)
Average temperature yesterday: 71 °F

Past Weeks' High & Low Weather Summary

 TemperatureHumidityPressure
High84 °F (Sep 20, 3:00 PM)94% (Sep 9, 2:30 AM)30.04 "Hg (Sep 9, 2:30 AM)
Low59 °F (Sep 13, 1:00 AM)42% (Sep 22, 2:00 PM)29.74 "Hg (Sep 11, 5:30 AM)
Average72 °F78%29.93 "Hg
* Reported Midnight between Sep 7 and Sep 8 — Midnight between Sep 22 and Sep 23, Bastia, Weather by CustomWeather, © 2014

Note: Actual official high and low records may vary slightly from our data, if they occured in-between our weather recording intervals... More about our weather records

Advertising

Bastia weather history for previous 24 hours

 ConditionsComfort  
Time TempWeatherWind HumidityBarometerVisibility
12:00 AM
Sep 23
64 °FPassing clouds.2 mph83%29.80 "HgN/A
11:30 PM
Sep 22
66 °FPassing clouds.6 mph78%29.80 "HgN/A
11:00 PM66 °FPassing clouds.5 mph78%29.80 "HgN/A
10:30 PM66 °FPartly cloudy.3 mph83%29.80 "HgN/A
10:00 PM66 °FPartly cloudy.2 mph83%29.80 "HgN/A
9:30 PM66 °FPassing clouds.5 mph83%29.80 "HgN/A
9:00 PM68 °FPassing clouds.2 mph83%29.80 "HgN/A
8:30 PM70 °FPassing clouds.1 mph83%29.77 "HgN/A
8:00 PM72 °FPartly sunny.1 mph83%29.77 "HgN/A
7:30 PM73 °FPartly sunny.No wind74%29.77 "HgN/A
7:00 PM77 °FPartly sunny.2 mph69%29.77 "HgN/A
6:30 PM79 °FPartly sunny.5 mph61%29.77 "HgN/A
6:00 PM81 °FPartly sunny.6 mph62%29.77 "HgN/A
4:30 PM81 °FPartly sunny.8 mph58%29.80 "HgN/A
4:00 PM82 °FPartly sunny.8 mph48%29.77 "HgN/A
3:00 PM82 °FPartly sunny.9 mph42%29.80 "HgN/A
2:30 PM82 °FPartly sunny.9 mph42%29.80 "HgN/A
2:00 PM82 °FPartly sunny.9 mph42%29.83 "HgN/A
1:30 PM82 °FPartly sunny.9 mph48%29.83 "HgN/A
1:00 PM84 °FPartly sunny.8 mph43%29.83 "HgN/A
12:30 PM82 °FPartly sunny.7 mph45%29.83 "HgN/A
12:00 PM82 °FPartly sunny.9 mph45%29.83 "HgN/A
11:30 AM82 °FPartly sunny.6 mph48%29.86 "HgN/A
11:00 AM81 °FPartly sunny.3 mph54%29.86 "HgN/A
10:30 AM79 °FPartly sunny.2 mph54%29.83 "HgN/A
10:00 AM77 °FPartly sunny.2 mph51%29.83 "HgN/A
9:30 AM72 °FPartly sunny.2 mph57%29.83 "HgN/A
9:00 AM66 °FPartly sunny.No wind64%29.83 "HgN/A
8:30 AM63 °FPartly sunny.3 mph68%29.83 "HgN/A
8:00 AM63 °FPassing clouds.6 mph68%29.83 "HgN/A
7:30 AM59 °FPassing clouds.3 mph77%29.86 "HgN/A
7:00 AM61 °FPassing clouds.2 mph72%29.83 "HgN/A
6:30 AM61 °FPassing clouds.3 mph77%29.83 "HgN/A
5:30 AM59 °FPassing clouds.3 mph88%29.83 "HgN/A
5:00 AM61 °FPassing clouds.2 mph77%29.86 "HgN/A
4:30 AM61 °FPassing clouds.2 mph77%29.86 "HgN/A
4:00 AM63 °FPassing clouds.2 mph73%29.86 "HgN/A
3:30 AM64 °FClear.7 mph73%29.86 "HgN/A
3:00 AM63 °FClear.6 mph83%29.89 "HgN/A
2:00 AM64 °FClear.3 mph83%29.89 "HgN/A
1:30 AM64 °FClear.1 mph83%29.89 "HgN/A
1:00 AM64 °FClear.2 mph88%29.89 "HgN/A
Weather by CustomWeather, © 2014

See weather overviewHow to use our weather pages